Location: Unspecified
(35.7250°N, 0.0000°E)
Time: 15:45:58
(UTC+00:00)

SR - Pass Details

Date: 29 June 2019
Orbit: 580 x 876 km, 66.7° (Epoch: 21 July)

Event Time Altitude Azimuth Distance (km) Brightness Sun altitude
Exits shadow 00:50:08 16° 72° (ENE) 1,523 ? -30.0°
Drops below altitude 10° 00:51:30 10° 57° (ENE) 1,907 ? -29.9°
Sets 00:54:07 0° 42° (NE) 2,831 ? -29.8°
